| time (UTC) | temp F | wind direction | speed MPH | gust MPH | rain 1hr in | rain 24hr in | rain mn in | humidity % | barometer mb |
| 20260510103113 | 55 | 0 | 1.0 | 4.0 | 0.00 | 0.00 | 0.00 | 75 | 1013.1 |
| 20260510103041 | 55 | 0 | 1.0 | 4.0 | 0.00 | 0.00 | 0.00 | 75 | 1013.1 |
| 20260510102535 | 55 | 0 | 0.0 | 2.0 | 0.00 | 0.00 | 0.00 | 69 | 1013.0 |
| 20260510102059 | 55 | 53 | 0.0 | 2.0 | 0.00 | 0.00 | 0.00 | 70 | 1012.8 |
| 20260510101552 | 55 | 54 | 0.0 | 2.0 | 0.00 | 0.00 | 0.00 | 69 | 1012.9 |
| 20260510101211 | 55 | 0 | 0.0 | 2.0 | 0.00 | 0.00 | 0.00 | 70 | 1012.7 |
| 20260510100533 | 55 | 53 | 0.0 | 3.0 | 0.00 | 0.00 | 0.00 | 69 | 1012.7 |
| 20260510100120 | 55 | 53 | 1.0 | 3.0 | 0.00 | 0.00 | 0.00 | 68 | 1012.7 |
| 20260510095524 | 55 | 0 | 0.0 | 3.0 | 0.00 | 0.04 | 0.00 | 69 | 1012.8 |
| 20260510095117 | 55 | 360 | 0.0 | 3.0 | 0.00 | 0.04 | 0.00 | 69 | 1012.7 |
| 20260510094841 | 55 | 360 | 0.0 | 3.0 | 0.00 | 0.04 | 0.00 | 70 | 1012.6 |
| 20260510094020 | 55 | 0 | 0.0 | 2.0 | 0.00 | 0.04 | 0.00 | 71 | 1012.5 |
| 20260510093543 | 55 | 360 | 0.0 | 3.0 | 0.00 | 0.04 | 0.00 | 71 | 1012.4 |
| 20260510093359 | 55 | 0 | 0.0 | 3.0 | 0.00 | 0.04 | 0.00 | 71 | 1012.4 |
| 20260510093250 | 55 | 0 | 0.0 | 3.0 | 0.00 | 0.04 | 0.00 | 71 | 1012.4 |
| 20260510092646 | 55 | 360 | 0.0 | 3.0 | 0.00 | 0.04 | 0.00 | 70 | 1012.4 |
| 20260510092538 | 55 | 360 | 0.0 | 3.0 | 0.00 | 0.04 | 0.00 | 70 | 1012.4 |
| 20260510092019 | 55 | 360 | 0.0 | 3.0 | 0.00 | 0.04 | 0.00 | 70 | 1012.3 |
| 20260510091625 | 55 | 360 | 0.0 | 2.0 | 0.00 | 0.04 | 0.00 | 71 | 1012.3 |
| 20260510091140 | 56 | 0 | 0.0 | 3.0 | 0.00 | 0.04 | 0.00 | 70 | 1012.3 |
| 20260510090633 | 56 | 0 | 0.0 | 3.0 | 0.00 | 0.04 | 0.00 | 71 | 1012.3 |
| 20260510090254 | 56 | 360 | 1.0 | 3.0 | 0.00 | 0.04 | 0.00 | 69 | 1012.1 |
| 20260510090151 | 56 | 360 | 1.0 | 3.0 | 0.00 | 0.04 | 0.00 | 69 | 1012.1 |
| 20260510085817 | 56 | 0 | 0.0 | 3.0 | 0.00 | 0.08 | 0.00 | 69 | 1012.1 |
| 20260510085054 | 56 | 0 | 0.0 | 3.0 | 0.00 | 0.08 | 0.00 | 70 | 1012.2 |
| 20260510084539 | 56 | 0 | 0.0 | 3.0 | 0.00 | 0.08 | 0.00 | 69 | 1012.0 |
| 20260510084112 | 57 | 360 | 0.0 | 5.0 | 0.00 | 0.08 | 0.00 | 69 | 1012.0 |
| 20260510084019 | 57 | 360 | 0.0 | 5.0 | 0.00 | 0.08 | 0.00 | 69 | 1012.0 |
| 20260510083605 | 57 | 0 | 0.0 | 5.0 | 0.00 | 0.08 | 0.00 | 70 | 1011.8 |
| 20260510083144 | 57 | 9 | 0.0 | 4.0 | 0.00 | 0.08 | 0.00 | 69 | 1011.7 |
| 20260510082520 | 57 | 355 | 0.0 | 4.0 | 0.00 | 0.08 | 0.00 | 69 | 1011.7 |
| 20260510082059 | 57 | 9 | 1.0 | 4.0 | 0.00 | 0.08 | 0.00 | 71 | 1011.6 |
| 20260510081541 | 58 | 355 | 0.0 | 5.0 | 0.00 | 0.08 | 0.00 | 72 | 1011.6 |
| 20260510081021 | 58 | 0 | 1.0 | 5.0 | 0.00 | 0.08 | 0.00 | 73 | 1011.6 |
| 20260510080530 | 58 | 355 | 1.0 | 5.0 | 0.00 | 0.08 | 0.00 | 74 | 1011.4 |
| 20260510080109 | 59 | 355 | 1.0 | 5.0 | 0.00 | 0.08 | 0.00 | 74 | 1011.1 |
| 20260510075603 | 59 | 26 | 2.0 | 5.0 | 0.00 | 0.12 | 0.00 | 75 | 1010.9 |
| 20260510075141 | 59 | 5 | 1.0 | 3.0 | 0.00 | 0.12 | 0.00 | 77 | 1010.9 |
| 20260510074547 | 59 | 5 | 1.0 | 9.0 | 0.00 | 0.12 | 0.00 | 78 | 1010.9 |
| 20260510074019 | 60 | 5 | 3.0 | 9.0 | 0.00 | 0.12 | 0.00 | 79 | 1010.9 |
| 20260510073549 | 60 | 350 | 4.0 | 8.0 | 0.00 | 0.12 | 0.00 | 80 | 1010.9 |
| 20260510073340 | 60 | 348 | 3.0 | 6.0 | 0.00 | 0.12 | 0.00 | 80 | 1010.8 |
| 20260510073225 | 60 | 348 | 3.0 | 6.0 | 0.00 | 0.12 | 0.00 | 80 | 1010.8 |
| 20260510072759 | 60 | 344 | 2.0 | 6.0 | 0.00 | 0.12 | 0.00 | 80 | 1010.6 |
| 20260510072045 | 60 | 0 | 0.0 | 2.0 | 0.00 | 0.12 | 0.00 | 79 | 1010.4 |
| 20260510071603 | 60 | 0 | 0.0 | 3.0 | 0.00 | 0.12 | 0.00 | 79 | 1010.3 |
| 20260510071127 | 60 | 270 | 1.0 | 3.0 | 0.00 | 0.12 | 0.00 | 79 | 1010.4 |
| 20260510070520 | 60 | 269 | 1.0 | 3.0 | 0.00 | 0.12 | 0.00 | 79 | 1010.3 |
| 20260510070125 | 60 | 268 | 0.0 | 3.0 | 0.00 | 0.12 | 0.00 | 79 | 1010.3 |
| 20260510065522 | 60 | 266 | 1.0 | 3.0 | 0.00 | 0.23 | 0.00 | 79 | 1010.3 |
| 20260510065017 | 60 | 255 | 1.0 | 3.0 | 0.00 | 0.23 | 0.00 | 79 | 1010.2 |
| 20260510064557 | 60 | 0 | 0.0 | 1.0 | 0.00 | 0.23 | 0.00 | 79 | 1010.3 |
| 20260510064225 | 60 | 0 | 0.0 | 1.0 | 0.00 | 0.23 | 0.00 | 79 | 1010.3 |
| 20260510063528 | 61 | 0 | 0.0 | 2.0 | 0.00 | 0.23 | 0.00 | 78 | 1010.3 |
| 20260510063159 | 61 | 0 | 0.0 | 2.0 | 0.00 | 0.23 | 0.00 | 78 | 1010.3 |
| 20260510062605 | 61 | 254 | 0.0 | 2.0 | 0.00 | 0.23 | 0.00 | 78 | 1010.3 |
| 20260510062037 | 61 | 254 | 0.0 | 3.0 | 0.00 | 0.23 | 0.00 | 77 | 1010.4 |
| 20260510061633 | 61 | 254 | 1.0 | 3.0 | 0.00 | 0.23 | 0.00 | 77 | 1010.5 |
| 20260510061055 | 62 | 252 | 1.0 | 2.0 | 0.00 | 0.23 | 0.00 | 77 | 1010.5 |
| 20260510060520 | 62 | 248 | 0.0 | 3.0 | 0.00 | 0.23 | 0.00 | 77 | 1010.5 |
| 20260510060104 | 62 | 248 | 1.0 | 4.0 | 0.00 | 0.23 | 0.00 | 76 | 1010.5 |
| 20260510055613 | 62 | 248 | 1.0 | 4.0 | 0.00 | 0.35 | 0.00 | 76 | 1010.5 |
| 20260510055112 | 62 | 247 | 2.0 | 5.0 | 0.00 | 0.35 | 0.00 | 76 | 1010.3 |
| 20260510054540 | 62 | 241 | 2.0 | 5.0 | 0.00 | 0.35 | 0.00 | 77 | 1010.4 |
| 20260510054110 | 62 | 247 | 3.0 | 5.0 | 0.00 | 0.35 | 0.00 | 76 | 1010.6 |
| 20260510053536 | 62 | 269 | 1.0 | 6.0 | 0.00 | 0.35 | 0.00 | 76 | 1010.7 |
| 20260510053052 | 62 | 284 | 2.0 | 7.0 | 0.00 | 0.35 | 0.00 | 76 | 1010.8 |
| 20260510052527 | 62 | 283 | 2.0 | 7.0 | 0.00 | 0.35 | 0.00 | 76 | 1010.8 |
| 20260510052115 | 62 | 298 | 3.0 | 5.0 | 0.00 | 0.35 | 0.00 | 76 | 1010.7 |
| 20260510051600 | 62 | 244 | 1.0 | 5.0 | 0.00 | 0.35 | 0.00 | 75 | 1010.3 |
| 20260510051026 | 63 | 320 | 2.0 | 5.0 | 0.00 | 0.35 | 0.00 | 74 | 1010.6 |
| 20260510050519 | 63 | 254 | 2.0 | 5.0 | 0.00 | 0.35 | 0.00 | 74 | 1010.2 |
| 20260510050255 | 62 | 261 | 2.0 | 5.0 | 0.00 | 0.35 | 0.00 | 74 | 1010.2 |
| 20260510050207 | 62 | 261 | 2.0 | 5.0 | 0.00 | 0.35 | 0.00 | 74 | 1010.2 |
| 20260510050058 | 62 | 261 | 2.0 | 5.0 | 0.00 | 0.35 | 0.00 | 74 | 1010.2 |
| 20260510045531 | 62 | 243 | 2.0 | 5.0 | 0.00 | 0.52 | 0.00 | 74 | 1010.2 |
| 20260510045029 | 62 | 216 | 2.0 | 5.0 | 0.00 | 0.52 | 0.00 | 74 | 1010.1 |
| 20260510044540 | 62 | 247 | 1.0 | 5.0 | 0.00 | 0.52 | 0.00 | 74 | 1010.1 |
| 20260510044142 | 62 | 221 | 1.0 | 4.0 | 0.00 | 0.52 | 0.00 | 74 | 1010.1 |
| 20260510043835 | 62 | 227 | 1.0 | 4.0 | 0.00 | 0.52 | 0.00 | 74 | 1010.1 |
| 20260510043704 | 62 | 227 | 1.0 | 4.0 | 0.00 | 0.52 | 0.00 | 74 | 1010.1 |
| 20260510043545 | 62 | 227 | 1.0 | 4.0 | 0.00 | 0.52 | 0.00 | 74 | 1010.1 |
| 20260510043048 | 62 | 224 | 1.0 | 4.0 | 0.00 | 0.52 | 0.00 | 74 | 1010.0 |
| 20260510042542 | 62 | 228 | 1.0 | 4.0 | 0.00 | 0.52 | 0.00 | 74 | 1010.1 |
| 20260510042027 | 62 | 223 | 1.0 | 4.0 | 0.00 | 0.52 | 0.00 | 74 | 1010.0 |
| 20260510041711 | 62 | 234 | 1.0 | 4.0 | 0.00 | 0.52 | 0.00 | 74 | 1010.0 |
| 20260510041622 | 62 | 234 | 1.0 | 4.0 | 0.00 | 0.52 | 0.00 | 74 | 1010.0 |
| 20260510041028 | 62 | 217 | 1.0 | 5.0 | 0.00 | 0.52 | 0.00 | 74 | 1010.1 |
| 20260510040557 | 62 | 230 | 2.0 | 5.0 | 0.00 | 0.52 | 0.00 | 74 | 1010.1 |
| 20260510040042 | 62 | 227 | 1.0 | 4.0 | 0.00 | 0.52 | 0.00 | 74 | 1010.1 |
| 20260510035520 | 62 | 223 | 1.0 | 4.0 | 0.00 | 0.65 | 0.52 | 73 | 1010.0 |
| 20260510035047 | 62 | 229 | 1.0 | 3.0 | 0.00 | 0.65 | 0.52 | 73 | 1010.0 |
| 20260510034628 | 63 | 230 | 1.0 | 5.0 | 0.00 | 0.65 | 0.52 | 72 | 1009.9 |
| 20260510034547 | 63 | 230 | 1.0 | 5.0 | 0.00 | 0.65 | 0.52 | 72 | 1009.9 |
| 20260510034024 | 63 | 231 | 1.0 | 5.0 | 0.00 | 0.65 | 0.52 | 72 | 1009.9 |
| 20260510033617 | 63 | 223 | 2.0 | 5.0 | 0.00 | 0.65 | 0.52 | 72 | 1010.0 |
| 20260510033113 | 63 | 238 | 2.0 | 4.0 | 0.00 | 0.65 | 0.52 | 72 | 1010.0 |
| 20260510032555 | 63 | 238 | 2.0 | 4.0 | 0.00 | 0.65 | 0.52 | 72 | 1010.0 |
| 20260510032020 | 63 | 240 | 2.0 | 3.0 | 0.00 | 0.65 | 0.52 | 72 | 1010.0 |
| 20260510031859 | 63 | 237 | 1.0 | 4.0 | 0.00 | 0.65 | 0.52 | 72 | 1009.9 |
| 20260510031056 | 63 | 228 | 1.0 | 4.0 | 0.00 | 0.65 | 0.52 | 72 | 1010.0 |
| 20260510030603 | 63 | 236 | 2.0 | 4.0 | 0.00 | 0.65 | 0.52 | 72 | 1009.9 |
| 20260510030111 | 63 | 210 | 2.0 | 4.0 | 0.00 | 0.65 | 0.52 | 71 | 1009.9 |
| 20260510025548 | 63 | 240 | 2.0 | 5.0 | 0.00 | 0.71 | 0.52 | 72 | 1009.9 |
| 20260510025141 | 63 | 247 | 2.0 | 5.0 | 0.00 | 0.71 | 0.52 | 72 | 1009.8 |
| 20260510024612 | 63 | 244 | 2.0 | 4.0 | 0.00 | 0.71 | 0.52 | 72 | 1009.8 |
| 20260510024024 | 63 | 253 | 2.0 | 4.0 | 0.00 | 0.71 | 0.52 | 72 | 1009.8 |
| 20260510023520 | 63 | 248 | 1.0 | 4.0 | 0.00 | 0.71 | 0.52 | 72 | 1009.6 |
| 20260510023039 | 63 | 231 | 1.0 | 4.0 | 0.00 | 0.71 | 0.52 | 72 | 1009.7 |
| 20260510022743 | 63 | 223 | 1.0 | 3.0 | 0.00 | 0.71 | 0.52 | 72 | 1009.7 |
| 20260510022307 | 64 | 215 | 0.0 | 3.0 | 0.00 | 0.71 | 0.52 | 72 | 1009.7 |
| 20260510021806 | 64 | 0 | 0.0 | 3.0 | 0.00 | 0.71 | 0.52 | 71 | 1009.6 |
| 20260510021054 | 64 | 244 | 0.0 | 3.0 | 0.00 | 0.71 | 0.52 | 71 | 1009.5 |
| 20260510020517 | 64 | 245 | 0.0 | 4.0 | 0.00 | 0.71 | 0.52 | 70 | 1009.6 |
| 20260510020057 | 64 | 246 | 1.0 | 4.0 | 0.00 | 0.71 | 0.52 | 70 | 1009.4 |
| 20260510015520 | 64 | 0 | 0.0 | 4.0 | 0.00 | 0.83 | 0.52 | 69 | 1009.4 |
| 20260510015028 | 65 | 248 | 2.0 | 5.0 | 0.00 | 0.83 | 0.52 | 69 | 1009.4 |
| 20260510014628 | 65 | 240 | 3.0 | 5.0 | 0.00 | 0.83 | 0.52 | 69 | 1009.3 |
| 20260510014019 | 65 | 252 | 2.0 | 5.0 | 0.00 | 0.83 | 0.52 | 69 | 1009.2 |
| 20260510013520 | 65 | 241 | 2.0 | 8.0 | 0.00 | 0.83 | 0.52 | 69 | 1009.1 |
| 20260510013042 | 65 | 250 | 3.0 | 8.0 | 0.00 | 0.83 | 0.52 | 68 | 1009.0 |
| 20260510012524 | 65 | 246 | 3.0 | 6.0 | 0.00 | 0.83 | 0.52 | 68 | 1009.0 |
| 20260510012038 | 65 | 242 | 3.0 | 6.0 | 0.00 | 0.83 | 0.52 | 68 | 1009.0 |
| 20260510011549 | 66 | 242 | 2.0 | 4.0 | 0.00 | 0.83 | 0.52 | 68 | 1008.8 |
| 20260510011424 | 66 | 253 | 2.0 | 4.0 | 0.00 | 0.83 | 0.52 | 69 | 1008.7 |
| 20260510010812 | 66 | 254 | 2.0 | 4.0 | 0.00 | 0.83 | 0.52 | 68 | 1008.6 |
| 20260510010718 | 66 | 254 | 2.0 | 4.0 | 0.00 | 0.83 | 0.52 | 68 | 1008.6 |
| 20260510010050 | 66 | 252 | 1.0 | 7.0 | 0.00 | 0.83 | 0.52 | 68 | 1008.6 |
| 20260510005711 | 67 | 250 | 2.0 | 7.0 | 0.00 | 0.91 | 0.52 | 67 | 1008.6 |
| 20260510005148 | 67 | 256 | 3.0 | 7.0 | 0.00 | 0.91 | 0.52 | 66 | 1008.6 |
| 20260510005038 | 67 | 256 | 3.0 | 7.0 | 0.00 | 0.91 | 0.52 | 66 | 1008.6 |
| 20260510004633 | 67 | 259 | 3.0 | 7.0 | 0.00 | 0.91 | 0.52 | 65 | 1008.5 |
| 20260510004058 | 67 | 249 | 3.0 | 9.0 | 0.00 | 0.91 | 0.52 | 64 | 1008.3 |
| 20260510003802 | 68 | 242 | 4.0 | 10.0 | 0.00 | 0.91 | 0.52 | 64 | 1008.2 |
| 20260510003212 | 68 | 238 | 4.0 | 10.0 | 0.00 | 0.91 | 0.52 | 64 | 1008.0 |
| 20260510002544 | 68 | 253 | 4.0 | 9.0 | 0.00 | 0.91 | 0.52 | 63 | 1008.0 |
| 20260510002028 | 68 | 248 | 5.0 | 10.0 | 0.00 | 0.91 | 0.52 | 63 | 1008.0 |
| 20260510001605 | 69 | 261 | 5.0 | 10.0 | 0.00 | 0.91 | 0.52 | 63 | 1008.0 |
| 20260510001459 | 69 | 259 | 5.0 | 11.0 | 0.00 | 0.91 | 0.52 | 62 | 1007.9 |
| 20260510001042 | 69 | 259 | 5.0 | 11.0 | 0.00 | 0.91 | 0.52 | 62 | 1007.9 |
| 20260510000550 | 69 | 264 | 5.0 | 12.0 | 0.00 | 0.91 | 0.52 | 61 | 1007.9 |
| 20260509235653 | 69 | 242 | 5.0 | 10.0 | 0.00 | 0.95 | 0.52 | 60 | 1007.8 |
| 20260509235119 | 70 | 244 | 5.0 | 11.0 | 0.00 | 0.95 | 0.52 | 59 | 1007.7 |
| 20260509234545 | 70 | 253 | 4.0 | 12.0 | 0.00 | 0.95 | 0.52 | 59 | 1007.6 |
| 20260509234135 | 70 | 308 | 5.0 | 12.0 | 0.00 | 0.95 | 0.52 | 63 | 1007.6 |
| 20260509234046 | 70 | 308 | 5.0 | 12.0 | 0.00 | 0.95 | 0.52 | 63 | 1007.6 |
| 20260509233527 | 70 | 257 | 4.0 | 8.0 | 0.00 | 0.95 | 0.52 | 58 | 1007.4 |
| 20260509233058 | 71 | 248 | 3.0 | 7.0 | 0.00 | 0.95 | 0.52 | 57 | 1007.5 |
| 20260509232610 | 71 | 252 | 3.0 | 9.0 | 0.00 | 0.95 | 0.52 | 58 | 1007.3 |
| 20260509232020 | 71 | 264 | 3.0 | 9.0 | 0.00 | 0.95 | 0.52 | 56 | 1007.4 |
| 20260509231543 | 71 | 254 | 4.0 | 9.0 | 0.00 | 0.95 | 0.52 | 55 | 1007.4 |
| 20260509231311 | 71 | 240 | 5.0 | 11.0 | 0.00 | 0.95 | 0.52 | 55 | 1007.3 |
| 20260509230615 | 72 | 256 | 5.0 | 13.0 | 0.00 | 0.95 | 0.52 | 56 | 1007.3 |
| 20260509230041 | 72 | 260 | 5.0 | 13.0 | 0.00 | 0.95 | 0.52 | 55 | 1007.2 |
| 20260509225549 | 72 | 273 | 5.0 | 13.0 | 0.00 | 0.95 | 0.52 | 53 | 1007.1 |
| 20260509225141 | 72 | 283 | 5.0 | 13.0 | 0.00 | 0.95 | 0.52 | 54 | 1007.1 |
| 20260509224114 | 72 | 239 | 6.0 | 12.0 | 0.00 | 0.95 | 0.52 | 53 | 1007.0 |
| 20260509223551 | 73 | 240 | 7.0 | 15.0 | 0.00 | 0.95 | 0.52 | 51 | 1007.0 |
| 20260509223217 | 73 | 240 | 6.0 | 15.0 | 0.00 | 0.95 | 0.52 | 57 | 1006.8 |
| 20260509222519 | 73 | 263 | 6.0 | 15.0 | 0.00 | 0.95 | 0.52 | 52 | 1006.9 |
| 20260509222139 | 73 | 250 | 7.0 | 15.0 | 0.00 | 0.95 | 0.52 | 51 | 1007.0 |
| 20260509221559 | 73 | 240 | 6.0 | 15.0 | 0.00 | 0.95 | 0.52 | 53 | 1006.9 |
| 20260509221313 | 74 | 236 | 6.0 | 16.0 | 0.00 | 0.95 | 0.52 | 52 | 1006.9 |
| 20260509221221 | 74 | 236 | 6.0 | 16.0 | 0.00 | 0.95 | 0.52 | 52 | 1006.9 |
| 20260509220910 | 74 | 244 | 8.0 | 16.0 | 0.00 | 0.95 | 0.52 | 49 | 1006.9 |
| 20260509220114 | 74 | 236 | 7.0 | 15.0 | 0.00 | 0.95 | 0.52 | 51 | 1007.0 |
| 20260509215544 | 74 | 206 | 7.0 | 15.0 | 0.00 | 0.95 | 0.52 | 51 | 1006.9 |
| 20260509215156 | 75 | 254 | 8.0 | 15.0 | 0.00 | 0.95 | 0.52 | 50 | 1006.9 |
| 20260509214628 | 75 | 236 | 7.0 | 17.0 | 0.00 | 0.95 | 0.52 | 52 | 1006.9 |
| 20260509214027 | 75 | 233 | 8.0 | 17.0 | 0.00 | 0.95 | 0.52 | 50 | 1007.0 |
| 20260509213520 | 75 | 225 | 5.0 | 16.0 | 0.00 | 0.95 | 0.52 | 49 | 1006.9 |
| 20260509213154 | 75 | 227 | 7.0 | 16.0 | 0.00 | 0.95 | 0.52 | 48 | 1007.0 |
| 20260509213057 | 75 | 227 | 7.0 | 16.0 | 0.00 | 0.95 | 0.52 | 48 | 1007.0 |
| 20260509212828 | 75 | 240 | 8.0 | 15.0 | 0.00 | 0.95 | 0.52 | 47 | 1006.9 |
| 20260509212020 | 76 | 270 | 8.0 | 15.0 | 0.00 | 0.95 | 0.52 | 50 | 1006.8 |
| 20260509211540 | 76 | 242 | 6.0 | 15.0 | 0.00 | 0.95 | 0.52 | 50 | 1006.9 |
| 20260509211058 | 76 | 244 | 5.0 | 13.0 | 0.00 | 0.95 | 0.52 | 48 | 1006.9 |
| 20260509210628 | 76 | 238 | 7.0 | 13.0 | 0.00 | 0.95 | 0.52 | 50 | 1006.9 |
| 20260509210110 | 75 | 219 | 3.0 | 13.0 | 0.00 | 0.95 | 0.52 | 54 | 1006.9 |
| 20260509205642 | 75 | 237 | 5.0 | 13.0 | 0.00 | 0.95 | 0.52 | 52 | 1006.9 |
| 20260509205531 | 75 | 237 | 5.0 | 13.0 | 0.00 | 0.95 | 0.52 | 52 | 1006.9 |
| 20260509205150 | 75 | 229 | 5.0 | 11.0 | 0.00 | 0.95 | 0.52 | 59 | 1006.9 |
| 20260509205039 | 75 | 229 | 5.0 | 11.0 | 0.00 | 0.95 | 0.52 | 59 | 1006.9 |
| 20260509204640 | 75 | 221 | 5.0 | 11.0 | 0.00 | 0.95 | 0.52 | 53 | 1007.0 |
| 20260509204054 | 75 | 252 | 6.0 | 14.0 | 0.00 | 0.95 | 0.52 | 55 | 1007.1 |
| 20260509203521 | 75 | 257 | 5.0 | 14.0 | 0.00 | 0.95 | 0.52 | 56 | 1007.1 |
| 20260509203034 | 75 | 198 | 6.0 | 15.0 | 0.00 | 0.95 | 0.52 | 56 | 1007.2 |
| 20260509202625 | 74 | 194 | 6.0 | 15.0 | 0.00 | 0.95 | 0.52 | 56 | 1007.1 |
| 20260509202020 | 74 | 213 | 5.0 | 16.0 | 0.00 | 0.95 | 0.52 | 56 | 1007.2 |
| 20260509201559 | 74 | 228 | 5.0 | 16.0 | 0.00 | 0.95 | 0.52 | 62 | 1007.3 |
| 20260509201048 | 74 | 258 | 4.0 | 13.0 | 0.00 | 0.95 | 0.52 | 64 | 1007.4 |
| 20260509200523 | 74 | 243 | 6.0 | 13.0 | 0.00 | 0.95 | 0.52 | 57 | 1007.4 |
| 20260509200145 | 74 | 196 | 4.0 | 10.0 | 0.00 | 0.95 | 0.52 | 56 | 1007.6 |
| 20260509195757 | 74 | 240 | 4.0 | 15.0 | 0.00 | 0.95 | 0.52 | 59 | 1007.7 |
| 20260509195630 | 74 | 240 | 4.0 | 15.0 | 0.00 | 0.95 | 0.52 | 59 | 1007.7 |
| 20260509195042 | 74 | 254 | 6.0 | 15.0 | 0.00 | 0.95 | 0.52 | 58 | 1007.7 |
| 20260509194558 | 73 | 244 | 6.0 | 14.0 | 0.00 | 0.95 | 0.52 | 59 | 1007.8 |
| 20260509194026 | 73 | 144 | 4.0 | 19.0 | 0.00 | 0.95 | 0.52 | 65 | 1007.8 |
| 20260509193540 | 72 | 238 | 6.0 | 19.0 | 0.00 | 0.95 | 0.52 | 61 | 1007.8 |
| 20260509193039 | 73 | 201 | 5.0 | 15.0 | 0.00 | 0.95 | 0.52 | 59 | 1007.8 |
| 20260509192519 | 73 | 155 | 5.0 | 15.0 | 0.00 | 0.95 | 0.52 | 62 | 1007.8 |
| 20260509192019 | 73 | 211 | 4.0 | 15.0 | 0.00 | 0.95 | 0.52 | 60 | 1007.7 |
| 20260509191553 | 73 | 200 | 4.0 | 10.0 | 0.00 | 0.95 | 0.52 | 66 | 1007.8 |
| 20260509191019 | 72 | 242 | 4.0 | 12.0 | 0.00 | 0.95 | 0.52 | 63 | 1007.8 |
| 20260509190524 | 72 | 255 | 5.0 | 12.0 | 0.00 | 0.95 | 0.52 | 64 | 1007.8 |
| 20260509190035 | 72 | 214 | 6.0 | 12.0 | 0.00 | 0.95 | 0.52 | 61 | 1007.8 |
| 20260509185520 | 72 | 227 | 5.0 | 11.0 | 0.00 | 0.95 | 0.52 | 62 | 1007.7 |
| 20260509185020 | 72 | 240 | 5.0 | 11.0 | 0.00 | 0.95 | 0.52 | 62 | 1007.9 |
| 20260509184549 | 71 | 196 | 4.0 | 11.0 | 0.00 | 0.95 | 0.52 | 68 | 1007.9 |
| 20260509184020 | 71 | 222 | 5.0 | 11.0 | 0.00 | 0.95 | 0.52 | 64 | 1007.9 |
| 20260509183519 | 71 | 260 | 4.0 | 11.0 | 0.00 | 0.95 | 0.52 | 63 | 1007.9 |
| 20260509183049 | 71 | 206 | 5.0 | 11.0 | 0.00 | 0.95 | 0.52 | 67 | 1008.0 |
| 20260509182519 | 71 | 242 | 3.0 | 11.0 | 0.00 | 0.95 | 0.52 | 65 | 1008.0 |
| 20260509182018 | 71 | 257 | 4.0 | 11.0 | 0.00 | 0.95 | 0.52 | 67 | 1008.0 |
| 20260509181538 | 70 | 246 | 5.0 | 12.0 | 0.00 | 0.95 | 0.52 | 66 | 1008.0 |
| 20260509181019 | 70 | 165 | 5.0 | 12.0 | 0.00 | 0.95 | 0.52 | 64 | 1008.0 |
| 20260509180519 | 70 | 250 | 5.0 | 12.0 | 0.00 | 0.95 | 0.52 | 65 | 1008.2 |
| 20260509180039 | 70 | 210 | 5.0 | 12.0 | 0.00 | 0.95 | 0.52 | 67 | 1008.0 |
| 20260509175521 | 70 | 238 | 5.0 | 12.0 | 0.00 | 0.95 | 0.52 | 67 | 1008.1 |
| 20260509175021 | 70 | 261 | 5.0 | 12.0 | 0.00 | 0.95 | 0.52 | 65 | 1008.2 |
| 20260509174538 | 70 | 236 | 6.0 | 12.0 | 0.00 | 0.95 | 0.52 | 69 | 1008.2 |
| 20260509174018 | 70 | 247 | 5.0 | 12.0 | 0.00 | 0.95 | 0.52 | 67 | 1008.2 |
| 20260509173522 | 70 | 221 | 3.0 | 12.0 | 0.00 | 0.95 | 0.52 | 69 | 1008.2 |
| 20260509173047 | 69 | 186 | 4.0 | 10.0 | 0.00 | 0.95 | 0.52 | 67 | 1008.3 |
| 20260509172519 | 69 | 239 | 5.0 | 11.0 | 0.00 | 0.95 | 0.52 | 67 | 1008.3 |
| 20260509172019 | 69 | 175 | 4.0 | 11.0 | 0.00 | 0.95 | 0.52 | 73 | 1008.4 |
| 20260509171539 | 69 | 232 | 4.0 | 11.0 | 0.00 | 0.95 | 0.52 | 67 | 1008.3 |
| 20260509171018 | 69 | 238 | 5.0 | 11.0 | 0.00 | 0.95 | 0.52 | 68 | 1008.2 |
| 20260509170518 | 69 | 242 | 6.0 | 11.0 | 0.00 | 0.95 | 0.52 | 68 | 1008.3 |
| 20260509170039 | 68 | 221 | 5.0 | 10.0 | 0.00 | 0.95 | 0.52 | 70 | 1008.5 |
| 20260509165518 | 68 | 250 | 5.0 | 10.0 | 0.00 | 0.95 | 0.52 | 70 | 1008.6 |
| 20260509165018 | 68 | 215 | 6.0 | 10.0 | 0.00 | 0.95 | 0.52 | 69 | 1008.5 |
| 20260509164538 | 68 | 233 | 5.0 | 15.0 | 0.00 | 0.95 | 0.52 | 74 | 1008.6 |
| 20260509164019 | 68 | 284 | 5.0 | 15.0 | 0.00 | 0.95 | 0.52 | 69 | 1008.5 |
| 20260509163518 | 68 | 244 | 6.0 | 10.0 | 0.00 | 0.95 | 0.52 | 70 | 1008.4 |
| 20260509163040 | 68 | 248 | 5.0 | 10.0 | 0.00 | 0.95 | 0.52 | 71 | 1008.4 |
| 20260509162521 | 68 | 205 | 3.0 | 10.0 | 0.00 | 0.95 | 0.52 | 70 | 1008.4 |
| 20260509162019 | 67 | 235 | 4.0 | 11.0 | 0.00 | 0.95 | 0.52 | 69 | 1008.4 |
| 20260509161532 | 67 | 241 | 6.0 | 11.0 | 0.00 | 0.95 | 0.52 | 76 | 1008.6 |
| 20260509161023 | 67 | 225 | 5.0 | 11.0 | 0.00 | 0.95 | 0.52 | 77 | 1008.4 |
| 20260509160521 | 67 | 242 | 4.0 | 12.0 | 0.00 | 0.95 | 0.52 | 70 | 1008.3 |
| 20260509160039 | 67 | 271 | 4.0 | 12.0 | 0.00 | 0.95 | 0.52 | 68 | 1008.3 |
| 20260509155521 | 67 | 250 | 5.0 | 12.0 | 0.00 | 0.95 | 0.52 | 71 | 1008.3 |
| 20260509155019 | 67 | 176 | 6.0 | 12.0 | 0.00 | 0.95 | 0.52 | 70 | 1008.3 |
| 20260509154538 | 66 | 241 | 4.0 | 10.0 | 0.00 | 0.95 | 0.52 | 70 | 1008.2 |
| 20260509154021 | 66 | 236 | 5.0 | 11.0 | 0.00 | 0.95 | 0.52 | 76 | 1008.2 |
| 20260509153518 | 66 | 249 | 6.0 | 11.0 | 0.00 | 0.95 | 0.52 | 71 | 1008.3 |
| 20260509153051 | 65 | 238 | 5.0 | 11.0 | 0.00 | 0.95 | 0.52 | 72 | 1008.3 |
| 20260509152521 | 65 | 222 | 6.0 | 11.0 | 0.00 | 0.95 | 0.52 | 74 | 1008.2 |
| 20260509152034 | 65 | 240 | 6.0 | 10.0 | 0.00 | 0.95 | 0.52 | 75 | 1008.3 |
| 20260509151538 | 64 | 200 | 4.0 | 11.0 | 0.00 | 0.95 | 0.52 | 77 | 1008.3 |
| 20260509151021 | 64 | 215 | 4.0 | 11.0 | 0.00 | 0.95 | 0.52 | 76 | 1008.3 |
| 20260509150523 | 64 | 153 | 6.0 | 11.0 | 0.00 | 0.95 | 0.52 | 74 | 1008.2 |
| 20260509150034 | 64 | 255 | 4.0 | 10.0 | 0.00 | 0.95 | 0.52 | 77 | 1008.3 |
| 20260509145519 | 64 | 255 | 2.0 | 9.0 | 0.00 | 0.95 | 0.52 | 77 | 1008.2 |
| 20260509145019 | 64 | 224 | 3.0 | 9.0 | 0.00 | 0.95 | 0.52 | 78 | 1008.2 |
| 20260509144540 | 63 | 219 | 3.0 | 9.0 | 0.00 | 0.95 | 0.52 | 77 | 1008.2 |
| 20260509144019 | 63 | 237 | 4.0 | 9.0 | 0.00 | 0.95 | 0.52 | 79 | 1008.2 |
| 20260509143518 | 62 | 238 | 3.0 | 8.0 | 0.00 | 0.95 | 0.52 | 79 | 1008.2 |
| 20260509143040 | 62 | 222 | 3.0 | 11.0 | 0.00 | 0.95 | 0.52 | 80 | 1008.2 |
| 20260509142523 | 61 | 243 | 3.0 | 11.0 | 0.00 | 0.95 | 0.52 | 81 | 1008.2 |
| 20260509142020 | 61 | 235 | 4.0 | 12.0 | 0.00 | 0.95 | 0.52 | 82 | 1008.1 |
| 20260509141539 | 60 | 243 | 3.0 | 12.0 | 0.00 | 0.95 | 0.52 | 84 | 1008.1 |
| 20260509141022 | 60 | 260 | 3.0 | 9.0 | 0.00 | 0.95 | 0.52 | 84 | 1008.1 |
| 20260509140520 | 59 | 223 | 3.0 | 8.0 | 0.00 | 0.95 | 0.52 | 85 | 1008.1 |
| 20260509140036 | 59 | 240 | 3.0 | 9.0 | 0.00 | 0.95 | 0.52 | 87 | 1008.1 |
| 20260509135521 | 59 | 263 | 3.0 | 9.0 | 0.00 | 0.95 | 0.52 | 88 | 1008.1 |
| 20260509135019 | 58 | 173 | 4.0 | 9.0 | 0.00 | 0.95 | 0.52 | 87 | 1008.0 |
| 20260509134540 | 58 | 243 | 3.0 | 7.0 | 0.00 | 0.95 | 0.52 | 88 | 1008.0 |
| 20260509134022 | 58 | 233 | 3.0 | 9.0 | 0.00 | 0.95 | 0.52 | 90 | 1008.1 |
| 20260509133519 | 57 | 184 | 3.0 | 10.0 | 0.00 | 0.95 | 0.52 | 91 | 1008.1 |
| 20260509133040 | 57 | 219 | 5.0 | 10.0 | 0.00 | 0.95 | 0.52 | 91 | 1008.1 |
| 20260509132521 | 57 | 207 | 3.0 | 8.0 | 0.00 | 0.95 | 0.52 | 92 | 1008.0 |
| 20260509132020 | 56 | 182 | 3.0 | 8.0 | 0.00 | 0.95 | 0.52 | 92 | 1008.1 |
| 20260509131538 | 56 | 190 | 4.0 | 9.0 | 0.00 | 0.95 | 0.52 | 92 | 1008.0 |
| 20260509131020 | 56 | 192 | 3.0 | 9.0 | 0.00 | 0.95 | 0.52 | 92 | 1007.9 |
| 20260509130518 | 56 | 208 | 3.0 | 6.0 | 0.00 | 0.95 | 0.52 | 92 | 1007.8 |
| 20260509130042 | 56 | 202 | 2.0 | 5.0 | 0.00 | 0.95 | 0.52 | 93 | 1007.9 |
| 20260509125520 | 55 | 194 | 3.0 | 7.0 | 0.00 | 0.95 | 0.52 | 93 | 1007.9 |
| 20260509125019 | 55 | 219 | 2.0 | 7.0 | 0.00 | 0.95 | 0.52 | 92 | 1007.9 |
| 20260509124548 | 55 | 188 | 3.0 | 7.0 | 0.00 | 0.95 | 0.52 | 93 | 1007.8 |
| 20260509124020 | 55 | 161 | 2.0 | 5.0 | 0.00 | 0.95 | 0.52 | 93 | 1007.8 |
| 20260509123521 | 55 | 146 | 1.0 | 5.0 | 0.00 | 0.95 | 0.52 | 93 | 1007.8 |
| 20260509123034 | 54 | 208 | 1.0 | 5.0 | 0.00 | 0.95 | 0.52 | 93 | 1008.0 |
| 20260509122519 | 54 | 0 | 1.0 | 5.0 | 0.00 | 0.95 | 0.52 | 93 | 1008.1 |
| 20260509122020 | 54 | 0 | 0.0 | 3.0 | 0.00 | 0.95 | 0.52 | 93 | 1008.1 |
| 20260509121539 | 54 | 0 | 1.0 | 3.0 | 0.00 | 0.95 | 0.52 | 93 | 1008.2 |
| 20260509121020 | 54 | 280 | 1.0 | 3.0 | 0.00 | 0.95 | 0.52 | 93 | 1008.2 |
| 20260509120521 | 54 | 0 | 1.0 | 4.0 | 0.00 | 0.95 | 0.52 | 93 | 1008.2 |
| 20260509120040 | 54 | 279 | 0.0 | 4.0 | 0.00 | 0.95 | 0.52 | 93 | 1008.2 |
| 20260509115518 | 54 | 277 | 1.0 | 4.0 | 0.00 | 0.95 | 0.52 | 93 | 1008.1 |
| 20260509115018 | 53 | 259 | 1.0 | 3.0 | 0.00 | 0.95 | 0.52 | 93 | 1007.9 |
| 20260509114542 | 53 | 248 | 1.0 | 3.0 | 0.00 | 0.95 | 0.52 | 93 | 1007.9 |
| 20260509114019 | 53 | 178 | 0.0 | 3.0 | 0.00 | 0.95 | 0.52 | 93 | 1007.6 |
| 20260509113518 | 53 | 176 | 1.0 | 3.0 | 0.00 | 0.95 | 0.52 | 93 | 1007.6 |
| 20260509113039 | 53 | 174 | 1.0 | 3.0 | 0.00 | 0.95 | 0.52 | 92 | 1007.4 |
| 20260509112518 | 53 | 175 | 1.0 | 4.0 | 0.00 | 0.95 | 0.52 | 92 | 1007.3 |
| 20260509112021 | 53 | 180 | 1.0 | 4.0 | 0.00 | 0.95 | 0.52 | 92 | 1007.3 |
| 20260509111535 | 53 | 180 | 1.0 | 4.0 | 0.00 | 0.95 | 0.52 | 92 | 1007.4 |
| 20260509111021 | 53 | 178 | 0.0 | 3.0 | 0.00 | 0.95 | 0.52 | 92 | 1007.3 |
| 20260509110519 | 53 | 178 | 1.0 | 3.0 | 0.00 | 0.95 | 0.52 | 92 | 1007.3 |
| 20260509110041 | 53 | 181 | 1.0 | 3.0 | 0.00 | 0.95 | 0.52 | 92 | 1007.2 |
| 20260509105520 | 53 | 180 | 1.0 | 3.0 | 0.01 | 0.95 | 0.52 | 92 | 1007.2 |
| 20260509105018 | 53 | 180 | 0.0 | 3.0 | 0.01 | 0.95 | 0.52 | 92 | 1007.1 |
| 20260509104540 | 53 | 180 | 1.0 | 5.0 | 0.01 | 0.95 | 0.52 | 92 | 1007.1 |
| 20260509104020 | 53 | 0 | 1.0 | 6.0 | 0.02 | 0.95 | 0.52 | 92 | 1007.0 |